Location: Newark
(37.9800°N, 91.3000°W)
Time: 19:06:42
(UTC+00:00)

NOAA 19 - Pass Details

Date: 11 December 2019
Orbit: 840 x 862 km, 99.2° (Epoch: 28 January)

Event Time Altitude Azimuth Distance (km) Brightness Sun altitude
Rises 11:17:23 0° 21° (NNE) 3,439 8.5 -21.7°
Reaches altitude 10° 11:19:53 10° 27° (NNE) 2,496 7.8 -21.2°
Maximum altitude 11:25:10 45° 100° (E) 1,150 6.4 -20.2°
Drops below altitude 10° 11:30:24 10° 172° (S) 2,467 7.9 -19.2°
Sets 11:32:51 0° 178° (S) 3,395 8.6 -18.7°
